Date String (YYYY-MM-DD hh:mm:ss) UTC,Instrument flags,Ambient pressure (hPa),Sample flow (lpm),Bypass flow (lpm),Sample temperature (°C),Ambient temperature (°C),ASC tube jacket temperature (°C),LED temperature (°C),Box temperature (°C),Sample RH (%),Span deviation,Mass concentration (μg/m³),Mass concentration (μg/m³),Mass concentration (μg/m³)
DateTimeUTC,F1_M11,P_M11,Q1_M11,Q2_M11,T1_M11,T2_M11,T3_M11,T4_M11,T5_M11,U1_M11,ZSPAN_M11,X0_M11,X2_M11,X1_M11
2023-02-16 09:00:00,,0825.5,5.03,0.00,21.7,20.4,00.0,30.8,23.2,07.2,0000.0,0004.27,0003.03,0002.64
2023-02-16 09:01:00,,0825.5,4.98,0.00,21.8,21.5,00.0,30.8,23.5,07.2,0000.0,0004.16,0002.99,0002.62
2023-02-16 09:02:00,,0825.4,4.95,0.00,21.9,22.4,00.0,30.8,23.9,07.1,0000.0,0004.13,0002.98,0002.62
2023-02-16 09:03:00,,0825.4,4.99,0.00,22.1,22.8,00.0,30.8,24.0,07.1,0000.0,0004.09,0002.95,0002.59
2023-02-16 09:04:00,,0825.4,4.99,0.00,22.1,22.1,00.0,30.8,23.8,07.0,0000.0,0004.10,0002.93,0002.57
2023-02-16 09:05:00,,0825.5,4.98,0.00,22.0,21.3,00.0,30.9,23.5,07.1,0000.0,0004.06,0002.90,0002.54
2023-02-16 09:06:00,,0825.5,4.98,0.00,21.8,20.5,00.0,30.9,23.2,07.1,0000.0,0003.97,0002.86,0002.52
2023-02-16 09:07:00,,0825.4,4.98,0.00,21.7,19.9,00.0,30.8,23.0,07.1,0000.0,0004.06,0002.88,0002.51
2023-02-16 09:08:00,,0825.5,5.01,0.00,21.6,19.5,00.0,30.8,22.8,07.2,0000.0,0004.04,0002.86,0002.49
2023-02-16 09:09:00,,0825.4,5.02,0.00,21.6,20.1,00.0,30.7,23.0,07.2,0000.0,0003.97,0002.85,0002.47
2023-02-16 09:10:00,,0825.5,5.02,0.00,21.7,21.4,00.0,30.7,23.4,07.2,0000.0,0003.74,0002.81,0002.46
2023-02-16 09:11:00,,0825.4,5.00,0.00,21.8,22.3,00.0,30.7,23.7,07.1,0000.0,0003.97,0002.77,0002.44
2023-02-16 09:12:00,,0825.4,4.98,0.00,22.0,22.9,00.0,30.7,23.9,07.1,0000.0,0003.99,0002.77,0002.43
2023-02-16 09:13:00,,0825.4,5.03,0.00,22.0,22.3,00.0,30.8,23.8,07.0,0000.0,0004.04,0002.77,0002.43
2023-02-16 09:14:00,,0825.4,5.02,0.00,21.9,21.4,00.0,30.8,23.5,07.0,0000.0,0004.19,0002.81,0002.43
2023-02-16 09:15:00,,0825.5,4.99,0.00,21.9,20.7,00.0,30.8,23.3,07.1,0000.0,0004.13,0002.79,0002.43
2023-02-16 09:16:00,,0825.5,4.99,0.00,21.7,20.2,00.0,30.8,23.1,07.1,0000.0,0004.14,0002.80,0002.43
2023-02-16 09:17:00,,0825.4,5.01,0.00,21.6,19.8,00.0,30.8,22.9,07.1,0000.0,0004.14,0002.80,0002.42
2023-02-16 09:18:00,,0825.4,5.01,0.00,21.6,20.3,00.0,30.7,23.1,07.2,0000.0,0004.09,0002.77,0002.41
2023-02-16 09:19:00,,0825.4,5.03,0.00,21.7,21.5,00.0,30.7,23.5,07.1,0000.0,0004.09,0002.79,0002.44
2023-02-16 09:20:00,,0825.4,4.99,0.00,21.9,22.5,00.0,30.7,23.8,07.1,0000.0,0004.08,0002.79,0002.46
2023-02-16 09:21:00,,0825.4,5.02,0.00,22.0,22.6,00.0,30.8,23.9,07.0,0000.0,0004.14,0002.83,0002.47
2023-02-16 09:22:00,,0825.4,4.99,0.00,22.0,21.8,00.0,30.8,23.7,07.0,0000.0,0003.86,0002.88,0002.49
2023-02-16 09:23:00,,0825.4,5.01,0.00,21.9,21.1,00.0,30.8,23.5,07.0,0000.0,0003.80,0002.86,0002.51
2023-02-16 09:24:00,,0825.4,4.98,0.00,21.8,20.5,00.0,30.8,23.3,07.0,0000.0,0003.84,0002.87,0002.50
2023-02-16 09:25:00,,0825.4,5.02,0.00,21.7,20.1,00.0,30.8,23.1,07.1,0000.0,0003.81,0002.88,0002.51
2023-02-16 09:26:00,,0825.4,5.01,0.00,21.7,19.7,00.0,30.8,23.0,07.1,0000.0,0003.77,0002.87,0002.51
2023-02-16 09:27:00,,0825.4,4.99,0.00,21.6,20.2,00.0,30.7,23.1,07.1,0000.0,0003.71,0002.84,0002.51
2023-02-16 09:28:00,,0825.4,5.01,0.00,21.8,21.4,00.0,30.7,23.5,07.1,0000.0,0003.70,0002.85,0002.53
2023-02-16 09:29:00,,0825.4,4.98,0.00,21.9,22.3,00.0,30.7,23.8,07.0,0000.0,0003.76,0002.87,0002.54
2023-02-16 09:30:00,,0825.5,4.94,0.00,22.0,22.6,00.0,30.7,23.9,07.0,0000.0,0003.83,0002.89,0002.54
2023-02-16 09:31:00,,0825.4,4.98,0.00,22.0,21.8,00.0,30.8,23.7,07.0,0000.0,0003.88,0002.91,0002.54
2023-02-16 09:32:00,,0825.4,5.00,0.00,21.9,21.1,00.0,30.8,23.5,07.0,0000.0,0003.93,0002.93,0002.54
2023-02-16 09:33:00,,0825.4,5.02,0.00,21.8,20.6,00.0,30.8,23.3,07.0,0000.0,0003.82,0002.88,0002.52
2023-02-16 09:34:00,,0825.4,5.00,0.00,21.7,20.1,00.0,30.8,23.2,07.0,0000.0,0003.83,0002.86,0002.50
2023-02-16 09:35:00,,0825.4,5.00,0.00,21.7,19.9,00.0,30.7,23.1,07.1,0000.0,0003.86,0002.81,0002.46
2023-02-16 09:36:00,,0825.4,4.98,0.00,21.7,20.9,00.0,30.7,23.4,07.0,0000.0,0003.82,0002.77,0002.42
2023-02-16 09:37:00,,0825.4,5.06,0.00,21.9,22.0,00.0,30.7,23.7,07.0,0000.0,0003.82,0002.74,0002.37
2023-02-16 09:38:00,,0825.4,4.99,0.00,22.0,22.8,00.0,30.7,24.0,06.9,0000.0,0003.78,0002.70,0002.33
2023-02-16 09:39:00,,0825.4,5.06,0.00,22.1,22.4,00.0,30.8,23.9,06.9,0000.0,0003.74,0002.64,0002.27
2023-02-16 09:40:00,,0825.4,5.01,0.00,22.0,21.6,00.0,30.8,23.7,06.9,0000.0,0003.66,0002.59,0002.20
2023-02-16 09:41:00,,0825.3,4.99,0.00,21.9,20.9,00.0,30.8,23.5,06.9,0000.0,0003.52,0002.50,0002.13
2023-02-16 09:42:00,,0825.4,4.99,0.00,21.9,20.4,00.0,30.8,23.4,07.0,0000.0,0003.41,0002.42,0002.07
2023-02-16 09:43:00,,0825.4,5.00,0.00,21.8,20.1,00.0,30.8,23.3,07.0,0000.0,0003.37,0002.37,0002.03
2023-02-16 09:44:00,,0825.4,5.00,0.00,21.8,20.0,00.0,30.8,23.3,07.0,0000.0,0003.40,0002.35,0001.99
2023-02-16 09:45:00,,0825.4,5.02,0.00,21.8,21.0,00.0,30.7,23.5,07.0,0000.0,0003.37,0002.32,0001.95
2023-02-16 09:46:00,,0825.4,4.96,0.00,22.0,22.0,00.0,30.7,23.8,06.9,0000.0,0003.14,0002.28,0001.94
2023-02-16 09:47:00,,0825.4,4.99,0.00,22.1,22.8,00.0,30.7,24.1,06.9,0000.0,0003.05,0002.24,0001.92
2023-02-16 09:48:00,,0825.4,5.03,0.00,22.2,22.6,00.0,30.8,24.1,06.9,0000.0,0003.16,0002.26,0001.93
2023-02-16 09:49:00,,0825.4,4.95,0.00,22.1,21.9,00.0,30.9,23.9,06.9,0000.0,0003.21,0002.27,0001.92
2023-02-16 09:50:00,,0825.4,5.00,0.00,22.1,21.2,00.0,30.9,23.7,06.9,0000.0,0003.92,0002.29,0001.94
2023-02-16 09:51:00,,0825.4,4.99,0.00,22.0,20.7,00.0,30.9,23.5,06.9,0000.0,0004.11,0002.32,0001.96
2023-02-16 09:52:00,,0825.4,5.01,0.00,21.9,20.3,00.0,30.9,23.4,06.9,0000.0,0004.17,0002.36,0001.99
2023-02-16 09:53:00,,0825.4,4.96,0.00,21.9,20.0,00.0,30.8,23.3,06.9,0000.0,0004.19,0002.38,0002.01
2023-02-16 09:54:00,,0825.4,5.03,0.00,21.9,21.0,00.0,30.8,23.6,06.9,0000.0,0004.09,0002.35,0002.01
2023-02-16 09:55:00,,0825.4,5.03,0.00,22.0,22.2,00.0,30.8,23.9,06.9,0000.0,0004.12,0002.37,0002.00
2023-02-16 09:56:00,,0825.4,5.03,0.00,22.2,23.0,00.0,30.8,24.2,06.8,0000.0,0004.13,0002.38,0002.00
2023-02-16 09:57:00,,0825.4,4.96,0.00,22.2,22.8,00.0,30.9,24.2,06.8,0000.0,0004.28,0002.44,0002.03
2023-02-16 09:58:00,,0825.4,5.00,0.00,22.2,22.1,00.0,30.9,24.0,06.8,0000.0,0004.34,0002.47,0002.04
2023-02-16 09:59:00,,0825.4,5.00,0.00,22.2,21.4,00.0,31.0,23.9,06.8,0000.0,0004.24,0002.47,0002.05
